User: anonymous   Login
Location: Katowice
(50.2611°N, 19.0242°E)
Time: 14:23:32
(UTC+02:00)
Language:

ISS - Orbit

View from above orbital plane
View from above orbital plane
View from above satellite
View from above satellite

Ground track
Ground track

The orbit data is extracted from the following two-line orbital elements,

1 25544U 98067A   19145.36270512  .00016717  00000-0  10270-3 0  9069
2 25544  51.6420 114.5778 0007090 333.5661  26.5127 15.51190299 11700
Epoch (UTC): 25 May 2019 08:42:17
Eccentricity: 0.0007090
inclination: 51.6420°
perigee height: 408 km
apogee height: 418 km
right ascension of ascending node: 114.5778°
argument of perigee: 333.5661°
revolutions per day: 15.51190299
mean anomaly at epoch: 26.5127°
orbit number at epoch: 1170

The dashed part of the orbit path shows where the satellite is in the earth's shadow,  

DLR